This demonstration page uses our WeatherBlox Daily Observations layout. Learn more.

Left ArrowRight Arrow

44.89941, -97.11507

Hourly Observations for October 28, 2021

Temp ( °F °C ) Dew Point ( °F °C ) Humidity (%) Winds ( mph kmh ) Pressure ( in mb ) Visibility ( mi km ) Precip ( " mm )
12:53 am 00:53 Cloudy 45 7.2 44 6.7 97 97 N 7 11 29.77 1008 10 16 0.00 0.00
1:53 am 01:53 Cloudy 44 6.7 43 6.1 96 96 NW 5 7 29.78 1009 10 16 0.00 0.00
2:53 am 02:53 Mostly Cloudy 44 6.7 43 6.1 96 96 NNW 5 7 29.78 1008 10 16 0.00 0.00
3:53 am 03:53 Clear 43 6.1 43 6.1 100 100 NW 3 6 29.79 1009 10 16 0.00 0.00
4:53 am 04:53 Clear 44 6.7 43 6.1 96 96 WNW 8 13 29.79 1009 10 16 0.00 0.00
5:53 am 05:53 Clear 43 6.1 42 5.6 97 97 WNW 6 9 29.80 1009 10 16 0.00 0.00
6:53 am 06:53 Clear 41 5 41 5 100 100 NW 3 6 29.81 1009 7 11 0.00 0.00
7:53 am 07:53 Clear 42 5.6 40 4.4 92 92 NW 7 11 29.82 1010 10 16 0.00 0.00
8:53 am 08:53 Sunny 41 5 38 3.3 89 89 NW 9 15 29.83 1010 10 16 0.00 0.00
9:53 am 09:53 Sunny 43 6.1 39 3.9 86 86 NNW 12 19 29.84 1011 10 16 0.00 0.00
10:53 am 10:53 Sunny 47 8.3 41 5 80 80 NW 16 26 29.87 1011 10 16 0.00 0.00
11:53 am 11:53 Sunny 48 8.9 41 5 77 77 NNW 18 30 29.89 1012 10 16 0.00 0.00
12:53 pm 12:53 Sunny 50 10 41 5 71 71 NNW 20 31 29.89 1012 10 16 0.00 0.00
1:53 pm 13:53 Sunny 53 11.7 42 5.6 66 66 NNW 22 35 29.89 1012 10 16 0.00 0.00
2:53 pm 14:53 Sunny 53 11.7 42 5.6 66 66 NNW 21 33 29.89 1012 10 16 0.00 0.00
3:53 pm 15:53 Sunny 53 11.7 42 5.6 66 66 NNW 24 39 29.91 1013 10 16 0.00 0.00
4:53 pm 16:53 Sunny 53 11.7 41 5 64 64 NNW 18 30 29.93 1014 10 16 0.00 0.00
5:53 pm 17:53 Sunny 50 10 42 5.6 74 74 N 13 20 29.97 1015 10 16 0.00 0.00
6:53 pm 18:53 Clear 48 8.9 41 5 77 77 NNW 14 22 29.98 1015 10 16 0.00 0.00
7:53 pm 19:53 Clear 45 7.2 39 3.9 80 80 N 13 20 30.00 1016 10 16 0.00 0.00
8:53 pm 20:53 Clear 44 6.7 40 4.4 85 85 N 12 19 30.01 1016 10 16 0.00 0.00
9:53 pm 21:53 Clear 40 4.4 37 2.8 89 89 N 9 15 30.03 1017 10 16 0.00 0.00
10:53 pm 22:53 Clear 40 4.4 37 2.8 89 89 N 9 15 30.04 1017 10 16 0.00 0.00
11:53 pm 23:53 Clear 39 3.9 37 2.8 93 93 NNW 10 17 30.05 1018 10 16 0.00 0.00

Powered by AerisWeather